Regional Weather Roundup
Issued by NWS Upton, NY

Current Version | Previous Version | Text Only | Print | Product List | Glossary On
Versions: 1 2 3 4 5 6 7 8 9 10 11 12 13 14 15 16 17 18 19 20 21 22 23 24 25 26 27 28 29 30 31 32 33 34 35 36 37 38 39 40 41 42 43 44 45 46 47 48 49 50
581
ASUS41 KOKX 121304
RWROKX

REGIONAL WEATHER ROUNDUP
NATIONAL WEATHER SERVICE NEW YORK NY
800 AM EST FRI FEB 12 2016

NOTE: "FAIR" INDICATES FEW OR NO CLOUDS BELOW 12,000 FEET WITH NO
SIGNIFICANT WEATHER AND/OR OBSTRUCTIONS TO VISIBILITY.

NYZ071-072-176-178-NJZ106-104-121400-
NEW YORK CITY METRO AREA


CITY           SKY/WX    TMP DP  RH WIND       PRES   REMARKS
CENTRAL PARK   SUNNY     16  -1  47 W7        30.28R WCI   6
LAGUARDIA APRT MOSUNNY   18   0  45 W10       30.27R WCI   6
KENNEDY INTL   MOSUNNY   19  -1  41 W8        30.29S WCI   9
NEWARK/LIBERTY SUNNY     17   0  47 W8        30.28S WCI   7
BRNX BOT. GARD   N/A     18   1  49 W8        30.28S WCI   7
TETERBORO      SUNNY     17   0  47 W7        30.27S WCI   8
$$

NYZ177-179-078>081-121400-
LONG ISLAND NEW YORK

CITY           SKY/WX    TMP DP  RH WIND       PRES   REMARKS
FARMINGDALE    SUNNY     17   0  47 W7        30.27R WCI   8
ISLIP          MOSUNNY   15   1  53 SW7       30.26R WCI   5
SHIRLEY        SUNNY     14   5  67 SW5       30.27R WCI   6
RIVERHEAD        N/A     16   0  48 NW2       30.24S
WESTHAMPTON    SUNNY      4   0  83 SW6       30.28S WCI  -7
EAST HAMPTON   FAIR      14   3  61 SW3       30.25R
MONTAUK POINT    N/A     19   6  57 W10G20    30.26R WCI   7
$$

NYZ052-065-067-121400-
HUDSON VALLEY

CITY           SKY/WX    TMP DP  RH WIND       PRES   REMARKS
WHITE PLAINS   SUNNY     14  -1  51 W7        30.21S WCI   4
NEWBURGH       SUNNY     10   3  72 W12       30.21F WCI  -4
MONTGOMERY     SUNNY     13   1  59 W6        30.20F WCI   4
POUGHKEEPSIE   SUNNY     15   0  51 SW5       30.23S WCI   8
ALBANY         PTCLDY     8  -1  66 S5        30.19S WCI   0
$$

NJZ001-105-106-008-010-013-015-019>022-104-121400-
NEW JERSEY

CITY           SKY/WX    TMP DP  RH WIND       PRES   REMARKS
NEWARK/LIBERTY SUNNY     17   0  47 W8        30.28S WCI   7
TETERBORO      SUNNY     17   0  47 W7        30.27S WCI   8
CALDWELL       SUNNY     15   0  51 W3        30.27R
MORRISTOWN     SUNNY     14   3  62 W6        30.27S WCI   5
SOMERVILLE     MOSUNNY   13   4  67 NW3       30.26S
SUSSEX         MIX PCPN  11   4  73 S3        30.21S
ANDOVER          N/A     11   0  61 CALM      30.22S
TRENTON        SUNNY     15   3  59 SW6       30.28R WCI   6
MILLVILLE      MOSUNNY  N/A N/A N/A CALM      30.31S
ATLANTIC CITY  SUNNY     17   5  59 W6        30.30F WCI   9
WRIGHTSTOWN    SUNNY     17   2  50 W6        30.26F WCI   9
TOMS RIVER     MOSUNNY   12   1  62 NW6       30.29F WCI   3
BELMAR         SUNNY     14  -2  48 W5        30.28S WCI   6
$$

PAZ047>061-062-071-121400-
EASTERN PENNSYLVANIA

CITY           SKY/WX    TMP DP  RH WIND       PRES   REMARKS
PHILADELPHIA   MOSUNNY   18   0  45 NW8       30.31F WCI   8
ALLENTOWN      PTCLDY    12   0  58 W6        30.25S WCI   3
SCRANTON       CLEAR     10   1  67 S5        30.16S WCI   2
$$

CTZ002-004>006-009-010-012-RIZ004-006-007-MAZ004-011-015-121400-
SOUTHERN NEW ENGLAND
 IN CT

CITY           SKY/WX    TMP DP  RH WIND       PRES   REMARKS
BRADLEY INTL   MOSUNNY    8  -1  66 SW9       30.20S WCI  -5
HARTFORD       SUNNY     10   0  63 S8        30.24R WCI  -2
DANBURY        MOSUNNY   11  -2  56 W6        30.21F WCI   1
WTRBRY/OXFORD  SUNNY      7  -8  51 SW5       30.17S WCI  -2
BRIDGEPORT     SUNNY     15   2  56 W10       30.25S WCI   2
MERIDEN        SUNNY      7   2  80 CALM      30.23F
NEW HAVEN      SUNNY     14   3  61 W7        30.24S WCI   4
CHESTER        FAIR      12   1  62 W5        30.20S WCI   4
GROTON         SUNNY     12   3  67 W8        30.24S WCI   0
WILLIMANTIC    SUNNY      5  -3  69 CALM      30.22S

 IN RI

CITY           SKY/WX    TMP DP  RH WIND       PRES   REMARKS
PROVIDENCE     MOSUNNY    9  -3  58 W7        30.23R WCI  -2
BLOCK ISLAND   SUNNY     18   7  62 W13G20    30.21R WCI   4
WESTERLY       SUNNY     11   0  61 W5        30.24S WCI   3

 IN MA

CITY           SKY/WX    TMP DP  RH WIND       PRES   REMARKS
BOSTON         MOSUNNY   10  -5  50 W10       30.20R WCI  -4
WORCESTER      SUNNY      2  -7  66 W12       30.10R WCI -15
WESTFIELD      SUNNY      4  -3  73 W5        30.19S WCI  -5
PROVINCETOWN   PTSUNNY   13   5  70 W17G23    30.20R WCI  -4
NANTUCKET      SUNNY     16   3  56 W12       30.22R WCI   3
$$

ANZ330-335-338-340-345-350-353-355-121400-
COASTAL MARINE OBSERVATIONS


STATION/POSITION TIME  SKY/WX   TEMP    WIND        PRES    VSBY  WAVE
                                AIR SEA DIR/SP/G                  HT/PER
                 (UTC)          (F)     (DEG/KT/KT) (MB)    (MI)  (FT/S)
NY HARB ENTRANCE 1150            20 42  300/ 14/ 21 1024.7          2/ 4
4S FIRE IS       NOT AVBL
20S FIRE ISLAND  1150            21 42  310/ 12/ 16 1024.9          4/ 5
GREAT SOUTH BAY  NOT AVBL
23SW MTP         1250            20 45  300/ 12/ 17 1024.5          4/ 6
HUDSON CANYON    1150            25 48              1024.3          7/ 7
KINGS POINT      1200            17 35  350/ 11/ 14 1024.5
EXECUTION ROCKS  NOT AVBL
CENTRAL LI SOUND 1230            19     270/ 14/ 17   N/A           2/ 4
EASTERN LI SOUND 1200            19 40  290/ 16/ 19   N/A
ROBBINS REEF     1200            16     320/ 11/ 14 1024.4
$$


>>>>>>>>>>>>>>>>>>>>>>>>>>>> KEY <<<<<<<<<<<<<<<<<<<<<<<<<<<
>                                                          <
>     SKY/WX - SKY CONDITION/PRESENT WEATHER               <
>     TMP    - TEMPERATURE IN FAHRENHEIT                   <
>     DP     - DEWPOINT IN FAHRENHEIT                      <
>     RH     - RELATIVE HUMIDITY IN PERCENT                <
>     WIND   - DIRECTION AND SPEED IN MPH                  <
>     PRES   - MEAN SEA LEVEL PRESSURE IN INCHES OF HG     <
>     WCI    - WIND CHILL INDEX                            <
>     VSB    - VISIBILITY IN MILES                         <
>     HX     - HEAT INDEX                                  <
>     TC     - TEMPERATURE IN CELSIUS                      <
>     VRB    - VARIABLE WIND DIRECTION                     <
>                                                          <
>>>>>>>>>>>>>>>>>>>>>>>>>>>> KEY <<<<<<<<<<<<<<<<<<<<<<<<<<<






USA.gov is the U.S. government's official web portal to all federal, state and local government web resources and services.